Location: Luxembourg
(49.6000°N, 6.1500°W)
Time: 08:32:49
(UTC+01:00)

ISS - Visible Passes

Search period start: 23 November 2017 00:00
Search period end: 03 December 2017 00:00
Orbit: 402 x 407 km, 51.6° (Epoch: 23 November)

Date Brightness Start Highest point End Pass type
(mag) Time Alt. Az. Time Alt. Az. Time Alt. Az.
28 Nov -1.8 19:49:07 10° SSW 19:50:37 21° S 19:50:37 21° S visible
29 Nov -2.0 18:57:28 10° S 18:59:51 19° SE 19:00:32 18° ESE visible
29 Nov -0.7 20:32:40 10° WSW 20:33:12 14° WSW 20:33:12 14° WSW visible
30 Nov -1.4 18:06:32 10° SSE 18:07:44 12° SE 18:08:54 10° ESE visible
30 Nov -3.1 19:40:25 10° SW 19:43:02 45° SSW 19:43:02 45° SSW visible
01 Dec -2.8 18:48:19 10° SW 18:51:20 34° SSE 18:52:49 22° E visible
01 Dec -1.0 20:24:23 10° W 20:25:28 19° W 20:25:28 19° W visible
02 Dec -3.9 19:31:58 10° WSW 19:35:12 85° SSW 19:35:12 85° SSW visible
